QPF
0.00 0.00 0.00 0.00 0.00 0.00 0.00 0.00 0.00 0.00 0.00 0.00 0.00 0.00 0.00 0.00 0.01 0.00 0.00 0.01 0.02 0.03 0.03 0.04 0.04 0.04 0.04 0.05 0.06 0.08 0.09 0.11 0.14 0.15 0.13 0.11 0.12 0.12 0.10 0.08 0.06 0.04 0.03
0.00 0.00 0.00 0.00 0.00 0.00 0.00 0.00 0.00 0.00 0.00 0.00 0.00 0.00 0.00 0.00 0.00 0.01 0.01 0.01 0.01 0.02 0.03 0.04 0.05 0.05 0.05 0.06 0.08 0.10 0.14 0.16 0.19 0.21 0.20 0.18 0.15 0.13 0.10 0.10 0.10 0.09 0.08
0.00 0.00 0.00 0.00 0.00 0.00 0.00 0.00 0.00 0.00 0.00 0.00 0.00 0.00 0.00 0.00 0.00 0.01 0.01 0.01 0.02 0.02 0.02 0.02 0.02 0.02 0.03 0.05 0.06 0.08 0.10 0.14 0.18 0.21 0.22 0.22 0.19 0.14 0.11 0.10 0.09 0.09 0.09
0.00 0.00 0.00 0.00 0.00 0.00 0.00 0.00 0.00 0.00 0.00 0.00 0.00 0.00 0.00 0.00 0.00 0.00 0.01 0.02 0.02 0.02 0.02 0.02 0.02 0.02 0.03 0.04 0.05 0.06 0.06 0.06 0.08 0.12 0.16 0.17 0.16 0.14 0.11 0.08 0.08 0.08 0.09
0.00 0.00 0.00 0.00 0.00 0.00 0.00 0.00 0.00 0.00 0.00 0.00 0.00 0.00 0.00 0.00 0.00 0.00 0.00 0.01 0.04 0.03 0.02 0.02 0.02 0.02 0.02 0.02 0.04 0.05 0.05 0.06 0.07 0.07 0.09 0.11 0.12 0.11 0.10 0.09 0.08 0.09 0.10
0.00 0.00 0.00 0.00 0.00 0.00 0.00 0.00 0.00 0.00 0.00 0.00 0.00 0.00 0.00 0.00 0.00 0.00 0.00 0.03 0.05 0.03 0.01 0.01 0.01 0.01 0.01 0.02 0.03 0.04 0.04 0.05 0.05 0.06 0.06 0.08 0.10 0.10 0.09 0.09 0.07 0.06 0.07
0.00 0.00 0.00 0.00 0.00 0.00 0.00 0.00 0.00 0.00 0.00 0.00 0.00 0.00 0.00 0.00 0.00 0.00 0.01 0.01 0.02 0.02 0.01 0.01 0.02 0.02 0.02 0.02 0.03 0.03 0.03 0.02 0.03 0.03 0.04 0.06 0.07 0.08 0.08 0.08 0.07 0.07 0.08
0.00 0.00 0.00 0.00 0.00 0.00 0.00 0.00 0.00 0.00 0.00 0.00 0.00 0.00 0.00 0.00 0.00 0.00 0.00 0.01 0.01 0.01 0.01 0.02 0.02 0.01 0.02 0.03 0.04 0.05 0.03 0.03 0.02 0.02 0.03 0.03 0.04 0.05 0.06 0.06 0.07 0.09 0.10
0.00 0.00 0.00 0.00 0.00 0.00 0.00 0.00 0.00 0.00 0.00 0.00 0.00 0.00 0.00 0.00 0.00 0.00 0.00 0.00 0.00 0.00 0.00 0.01 0.01 0.01 0.01 0.02 0.02 0.03 0.03 0.03 0.03 0.03 0.03 0.03 0.03 0.03 0.04 0.05 0.06 0.07 0.08
0.00 0.00 0.00 0.00 0.00 0.00 0.00 0.00 0.00 0.00 0.00 0.00 0.00 0.00 0.00 0.00 0.00 0.00 0.00 0.00 0.00 0.00 0.00 0.01 0.01 0.01 0.01 0.02 0.02 0.02 0.02 0.03 0.03 0.02 0.02 0.02 0.03 0.03 0.03 0.04 0.05 0.06 0.07
0.00 0.00 0.00 0.00 0.00 0.00 0.00 0.00 0.00 0.00 0.00 0.00 0.00 0.00 0.00 0.00 0.00 0.00 0.00 0.00 0.01 0.01 0.01 0.01 0.01 0.01 0.01 0.01 0.02 0.03 0.03 0.03 0.04 0.04 0.04 0.04 0.04 0.04 0.04 0.05 0.05 0.06 0.06
0.00 0.00 0.00 0.00 0.00 0.00 0.00 0.00 0.00 0.00 0.00 0.00 0.00 0.00 0.00 0.00 0.00 0.00 0.00 0.00 0.01 0.01 0.01 0.01 0.01 0.01 0.01 0.01 0.01 0.02 0.03 0.04 0.04 0.05 0.05 0.05 0.05 0.05 0.06 0.06 0.06 0.06 0.06
0.00 0.00 0.00 0.00 0.00 0.00 0.00 0.01 0.01 0.01 0.00 0.00 0.00 0.00 0.00 0.00 0.00 0.00 0.00 0.00 0.01 0.02 0.02 0.01 0.01 0.01 0.01 0.01 0.01 0.01 0.02 0.03 0.03 0.03 0.04 0.04 0.04 0.05 0.05 0.05 0.05 0.06 0.06
0.00 0.00 0.00 0.00 0.00 0.00 0.00 0.00 0.00 0.00 0.00 0.00 0.00 0.00 0.00 0.00 0.00 0.00 0.00 0.00 0.00 0.01 0.01 0.02 0.02 0.01 0.01 0.01 0.01 0.01 0.01 0.01 0.01 0.01 0.02 0.02 0.03 0.04 0.04 0.04 0.04 0.04 0.05
0.00 0.00 0.00 0.00 0.00 0.00 0.00 0.00 0.00 0.00 0.00 0.00 0.00 0.00 0.00 0.00 0.00 0.00 0.00 0.00 0.00 0.00 0.00 0.00 0.01 0.01 0.01 0.00 0.00 0.00 0.00 0.00 0.00 0.00 0.01 0.01 0.01 0.02 0.02 0.02 0.03 0.03 0.03
0.00 0.00 0.00 0.00 0.00 0.00 0.00 0.00 0.00 0.00 0.01 0.01 0.01 0.01 0.00 0.01 0.00 0.00 0.00 0.00 0.00 0.00 0.00 0.00 0.00 0.00 0.00 0.00 0.00 0.00 0.00 0.00 0.00 0.00 0.00 0.01 0.01 0.01 0.01 0.02 0.02 0.03 0.03
0.00 0.00 0.00 0.00 0.00 0.00 0.00 0.00 0.00 0.00 0.00 0.01 0.00 0.00 0.00 0.00 0.00 0.00 0.00 0.00 0.00 0.00 0.00 0.00 0.00 0.00 0.00 0.00 0.00 0.00 0.00 0.00 0.00 0.00 0.00 0.00 0.00 0.00 0.00 0.01 0.01 0.02 0.03
0.00 0.00 0.00 0.00 0.00 0.00 0.00 0.00 0.00 0.00 0.00 0.00 0.00 0.00 0.00 0.00 0.00 0.00 0.00 0.00 0.00 0.00 0.00 0.00 0.00 0.00 0.00 0.00 0.00 0.00 0.00 0.00 0.00 0.00 0.00 0.00 0.00 0.01 0.01 0.01 0.01 0.01 0.02
0.00 0.00 0.00 0.00 0.00 0.00 0.00 0.00 0.00 0.00 0.00 0.00 0.00 0.00 0.00 0.00 0.00 0.00 0.00 0.00 0.00 0.00 0.00 0.00 0.00 0.00 0.00 0.00 0.01 0.01 0.01 0.01 0.01 0.01 0.01 0.01 0.01 0.02 0.02 0.02 0.02 0.02 0.02
0.00 0.00 0.00 0.00 0.00 0.00 0.00 0.00 0.00 0.00 0.00 0.00 0.00 0.00 0.00 0.00 0.00 0.00 0.00 0.00 0.00 0.00 0.00 0.00 0.00 0.00 0.00 0.00 0.01 0.01 0.00 0.00 0.01 0.01 0.01 0.01 0.01 0.02 0.02 0.02 0.02 0.02 0.02
0.00 0.00 0.00 0.00 0.00 0.00 0.00 0.00 0.00 0.00 0.00 0.00 0.00 0.00 0.00 0.00 0.00 0.00 0.00 0.00 0.00 0.00 0.00 0.00 0.00 0.00 0.00 0.00 0.00 0.00 0.00 0.00 0.00 0.00 0.00 0.00 0.00 0.01 0.01 0.01 0.01 0.01 0.02
0.00 0.00 0.00 0.00 0.00 0.00 0.00 0.00 0.00 0.00 0.00 0.00 0.00 0.00 0.00 0.00 0.00 0.00 0.00 0.00 0.00 0.00 0.00 0.00 0.00 0.00 0.00 0.00 0.00 0.00 0.00 0.00 0.00 0.00 0.00 0.00 0.00 0.00 0.00 0.00 0.00 0.01 0.01
0.00 0.00 0.00 0.00 0.00 0.00 0.00 0.00 0.00 0.00 0.00 0.00 0.00 0.00 0.00 0.00 0.00 0.00 0.00 0.00 0.00 0.00 0.00 0.00 0.00 0.00 0.00 0.00 0.00 0.00 0.00 0.00 0.00 0.00 0.00 0.00 0.00 0.00 0.00 0.00 0.00 0.00 0.00
0.00 0.00 0.00 0.00 0.00 0.00 0.00 0.00 0.00 0.00 0.00 0.00 0.00 0.00 0.00 0.00 0.00 0.00 0.00 0.00 0.00 0.00 0.00 0.00 0.00 0.00 0.00 0.00 0.00 0.00 0.00 0.00 0.00 0.00 0.00 0.00 0.00 0.00 0.00 0.00 0.00 0.00 0.01
0.00 0.00 0.00 0.00 0.00 0.00 0.00 0.00 0.00 0.00 0.00 0.00 0.00 0.00 0.00 0.00 0.00 0.00 0.00 0.00 0.00 0.00 0.00 0.00 0.00 0.00 0.00 0.00 0.00 0.01 0.01 0.00 0.00 0.01 0.01 0.00 0.00 0.00 0.00 0.00 0.00 0.00 0.00
0.00 0.00 0.00 0.00 0.00 0.00 0.00 0.00 0.00 0.00 0.00 0.00 0.00 0.00 0.00 0.00 0.00 0.00 0.00 0.00 0.00 0.00 0.00 0.00 0.00 0.00 0.00 0.00 0.00 0.00 0.00 0.01 0.01 0.01 0.01 0.00 0.00 0.00 0.00 0.00 0.00 0.00 0.00
MSLP
1022.79 1023.07 1023.28 1023.41 1023.43 1023.37 1023.21 1022.96 1022.65 1022.28 1021.88 1021.46 1021.04 1020.62 1020.22 1019.82 1019.43 1019.04 1018.64 1018.24 1017.83 1017.41 1016.99 1016.57 1016.16 1015.76 1015.36 1014.95 1014.53 1014.09 1013.62 1013.13 1012.62 1012.12 1011.63 1011.20 1010.83 1010.56 1010.38 1010.31 1010.33 1010.44 1010.61
1022.62 1022.95 1023.21 1023.38 1023.44 1023.40 1023.27 1023.06 1022.80 1022.50 1022.18 1021.84 1021.50 1021.14 1020.77 1020.39 1019.99 1019.58 1019.15 1018.72 1018.29 1017.87 1017.44 1017.03 1016.61 1016.20 1015.76 1015.31 1014.83 1014.32 1013.77 1013.21 1012.64 1012.08 1011.55 1011.06 1010.64 1010.30 1010.07 1009.93 1009.88 1009.94 1010.06
1022.34 1022.73 1023.05 1023.26 1023.36 1023.35 1023.25 1023.09 1022.89 1022.67 1022.44 1022.19 1021.93 1021.65 1021.33 1020.98 1020.59 1020.17 1019.73 1019.29 1018.85 1018.41 1017.99 1017.58 1017.16 1016.73 1016.28 1015.79 1015.27 1014.71 1014.12 1013.52 1012.92 1012.32 1011.76 1011.23 1010.77 1010.37 1010.05 1009.83 1009.70 1009.66 1009.72
1021.97 1022.43 1022.81 1023.07 1023.21 1023.24 1023.18 1023.06 1022.92 1022.77 1022.62 1022.47 1022.30 1022.09 1021.84 1021.53 1021.16 1020.75 1020.31 1019.86 1019.42 1018.99 1018.58 1018.17 1017.76 1017.33 1016.88 1016.38 1015.84 1015.27 1014.68 1014.08 1013.47 1012.88 1012.31 1011.77 1011.26 1010.80 1010.40 1010.08 1009.85 1009.71 1009.67
1021.54 1022.08 1022.52 1022.84 1023.03 1023.09 1023.07 1022.99 1022.89 1022.80 1022.73 1022.65 1022.56 1022.43 1022.24 1021.98 1021.65 1021.26 1020.83 1020.39 1019.96 1019.54 1019.14 1018.75 1018.36 1017.95 1017.51 1017.03 1016.52 1015.98 1015.42 1014.85 1014.28 1013.72 1013.17 1012.64 1012.11 1011.60 1011.13 1010.70 1010.36 1010.11 1009.96
1021.09 1021.69 1022.21 1022.59 1022.83 1022.93 1022.93 1022.88 1022.82 1022.77 1022.75 1022.74 1022.72 1022.65 1022.52 1022.31 1022.02 1021.65 1021.25 1020.82 1020.40 1020.00 1019.62 1019.26 1018.89 1018.52 1018.12 1017.69 1017.23 1016.74 1016.25 1015.75 1015.26 1014.76 1014.26 1013.74 1013.21 1012.68 1012.14 1011.64 1011.19 1010.84 1010.59
1020.62 1021.30 1021.89 1022.32 1022.60 1022.73 1022.76 1022.73 1022.69 1022.68 1022.70 1022.74 1022.77 1022.76 1022.69 1022.52 1022.27 1021.94 1021.56 1021.15 1020.75 1020.37 1020.01 1019.67 1019.34 1019.00 1018.65 1018.28 1017.89 1017.48 1017.08 1016.67 1016.26 1015.85 1015.41 1014.95 1014.44 1013.90 1013.33 1012.78 1012.26 1011.82 1011.48
1020.15 1020.88 1021.52 1022.01 1022.32 1022.48 1022.53 1022.52 1022.50 1022.52 1022.57 1022.65 1022.73 1022.78 1022.75 1022.63 1022.42 1022.12 1021.76 1021.38 1021.00 1020.63 1020.29 1019.97 1019.67 1019.37 1019.06 1018.75 1018.43 1018.11 1017.79 1017.48 1017.17 1016.84 1016.49 1016.09 1015.63 1015.11 1014.54 1013.97 1013.42 1012.93 1012.53
1019.66 1020.43 1021.10 1021.61 1021.94 1022.12 1022.19 1022.20 1022.21 1022.26 1022.35 1022.47 1022.60 1022.70 1022.72 1022.65 1022.48 1022.22 1021.89 1021.53 1021.16 1020.81 1020.47 1020.17 1019.89 1019.61 1019.34 1019.07 1018.81 1018.56 1018.31 1018.08 1017.86 1017.62 1017.35 1017.02 1016.62 1016.15 1015.62 1015.07 1014.52 1014.02 1013.61
1019.13 1019.89 1020.55 1021.06 1021.40 1021.59 1021.68 1021.72 1021.77 1021.86 1022.00 1022.18 1022.37 1022.53 1022.62 1022.60 1022.48 1022.26 1021.97 1021.63 1021.27 1020.92 1020.59 1020.29 1020.01 1019.74 1019.49 1019.24 1019.01 1018.80 1018.61 1018.44 1018.28 1018.11 1017.91 1017.66 1017.33 1016.93 1016.46 1015.96 1015.45 1014.98 1014.57
1018.53 1019.24 1019.86 1020.33 1020.66 1020.85 1020.95 1021.03 1021.13 1021.29 1021.50 1021.76 1022.03 1022.26 1022.42 1022.48 1022.41 1022.25 1021.99 1021.68 1021.34 1021.00 1020.67 1020.36 1020.07 1019.79 1019.53 1019.29 1019.07 1018.87 1018.70 1018.56 1018.44 1018.31 1018.17 1017.97 1017.72 1017.39 1017.00 1016.56 1016.12 1015.69 1015.31
1017.86 1018.47 1019.00 1019.41 1019.70 1019.88 1020.00 1020.13 1020.30 1020.54 1020.85 1021.20 1021.56 1021.89 1022.13 1022.27 1022.27 1022.17 1021.96 1021.69 1021.38 1021.05 1020.72 1020.40 1020.10 1019.80 1019.52 1019.26 1019.02 1018.81 1018.64 1018.51 1018.39 1018.29 1018.18 1018.03 1017.83 1017.57 1017.25 1016.88 1016.50 1016.12 1015.78
1017.14 1017.61 1018.02 1018.33 1018.55 1018.72 1018.87 1019.05 1019.30 1019.63 1020.05 1020.51 1020.98 1021.40 1021.74 1021.96 1022.05 1022.01 1021.87 1021.64 1021.36 1021.06 1020.74 1020.43 1020.11 1019.80 1019.50 1019.21 1018.95 1018.72 1018.52 1018.37 1018.24 1018.14 1018.04 1017.91 1017.74 1017.53 1017.26 1016.95 1016.62 1016.29 1015.97
1016.40 1016.70 1016.96 1017.15 1017.31 1017.45 1017.62 1017.86 1018.19 1018.63 1019.16 1019.73 1020.30 1020.82 1021.25 1021.55 1021.72 1021.76 1021.68 1021.52 1021.29 1021.02 1020.74 1020.43 1020.12 1019.80 1019.49 1019.18 1018.88 1018.62 1018.39 1018.21 1018.06 1017.94 1017.83 1017.70 1017.54 1017.35 1017.11 1016.83 1016.52 1016.21 1015.90
1015.67 1015.80 1015.90 1015.98 1016.06 1016.17 1016.37 1016.66 1017.08 1017.62 1018.24 1018.91 1019.57 1020.18 1020.68 1021.06 1021.30 1021.41 1021.40 1021.31 1021.14 1020.93 1020.68 1020.41 1020.12 1019.80 1019.48 1019.16 1018.85 1018.56 1018.30 1018.08 1017.90 1017.75 1017.61 1017.47 1017.30 1017.10 1016.85 1016.57 1016.27 1015.95 1015.64
1015.00 1014.96 1014.92 1014.89 1014.91 1015.01 1015.23 1015.58 1016.07 1016.69 1017.39 1018.13 1018.85 1019.52 1020.08 1020.51 1020.81 1020.98 1021.04 1021.01 1020.91 1020.76 1020.57 1020.34 1020.07 1019.78 1019.47 1019.14 1018.82 1018.50 1018.22 1017.98 1017.77 1017.58 1017.41 1017.24 1017.04 1016.82 1016.55 1016.24 1015.91 1015.57 1015.22
1014.42 1014.24 1014.08 1013.97 1013.95 1014.05 1014.29 1014.69 1015.24 1015.92 1016.67 1017.45 1018.20 1018.89 1019.48 1019.94 1020.27 1020.49 1020.61 1020.65 1020.61 1020.52 1020.39 1020.20 1019.98 1019.71 1019.41 1019.09 1018.76 1018.43 1018.13 1017.87 1017.63 1017.42 1017.22 1017.01 1016.78 1016.52 1016.21 1015.86 1015.49 1015.10 1014.72
1013.93 1013.65 1013.42 1013.26 1013.22 1013.33 1013.61 1014.05 1014.65 1015.36 1016.13 1016.91 1017.66 1018.34 1018.92 1019.39 1019.74 1019.99 1020.15 1020.24 1020.26 1020.23 1020.14 1020.00 1019.81 1019.56 1019.28 1018.96 1018.62 1018.29 1017.98 1017.70 1017.45 1017.22 1016.99 1016.76 1016.49 1016.19 1015.85 1015.46 1015.04 1014.60 1014.18
1013.52 1013.19 1012.92 1012.76 1012.73 1012.88 1013.19 1013.67 1014.29 1015.00 1015.76 1016.52 1017.24 1017.89 1018.44 1018.89 1019.24 1019.50 1019.69 1019.82 1019.88 1019.90 1019.85 1019.74 1019.57 1019.33 1019.05 1018.73 1018.39 1018.05 1017.73 1017.44 1017.18 1016.94 1016.70 1016.45 1016.17 1015.84 1015.46 1015.03 1014.57 1014.10 1013.64
1013.17 1012.83 1012.57 1012.43 1012.44 1012.62 1012.98 1013.48 1014.11 1014.81 1015.54 1016.25 1016.92 1017.51 1018.02 1018.44 1018.78 1019.04 1019.25 1019.41 1019.51 1019.55 1019.53 1019.43 1019.26 1019.02 1018.73 1018.39 1018.04 1017.70 1017.37 1017.08 1016.81 1016.57 1016.33 1016.08 1015.79 1015.45 1015.05 1014.61 1014.12 1013.62 1013.13
1012.86 1012.54 1012.31 1012.22 1012.28 1012.51 1012.90 1013.42 1014.03 1014.70 1015.39 1016.04 1016.65 1017.18 1017.64 1018.03 1018.36 1018.63 1018.85 1019.02 1019.14 1019.20 1019.18 1019.09 1018.90 1018.65 1018.33 1017.98 1017.61 1017.25 1016.92 1016.62 1016.36 1016.13 1015.90 1015.66 1015.38 1015.04 1014.64 1014.19 1013.69 1013.18 1012.67
1012.57 1012.29 1012.12 1012.08 1012.19 1012.46 1012.87 1013.38 1013.98 1014.61 1015.24 1015.83 1016.38 1016.86 1017.28 1017.65 1017.97 1018.24 1018.47 1018.66 1018.79 1018.85 1018.83 1018.72 1018.52 1018.24 1017.89 1017.51 1017.12 1016.75 1016.42 1016.12 1015.88 1015.66 1015.45 1015.23 1014.96 1014.64 1014.25 1013.80 1013.31 1012.79 1012.28
1012.31 1012.07 1011.95 1011.96 1012.11 1012.40 1012.81 1013.31 1013.87 1014.45 1015.02 1015.56 1016.06 1016.50 1016.90 1017.26 1017.57 1017.86 1018.11 1018.30 1018.44 1018.50 1018.47 1018.34 1018.11 1017.80 1017.43 1017.03 1016.63 1016.25 1015.91 1015.63 1015.40 1015.20 1015.01 1014.81 1014.57 1014.26 1013.89 1013.45 1012.97 1012.45 1011.94
1012.08 1011.88 1011.80 1011.84 1012.01 1012.29 1012.69 1013.15 1013.67 1014.19 1014.71 1015.20 1015.66 1016.09 1016.47 1016.83 1017.16 1017.47 1017.73 1017.94 1018.07 1018.13 1018.08 1017.93 1017.68 1017.35 1016.97 1016.56 1016.15 1015.77 1015.45 1015.19 1014.97 1014.80 1014.63 1014.44 1014.22 1013.93 1013.57 1013.14 1012.66 1012.15 1011.64
1011.89 1011.72 1011.66 1011.70 1011.86 1012.13 1012.48 1012.90 1013.35 1013.83 1014.30 1014.75 1015.19 1015.60 1016.00 1016.37 1016.72 1017.04 1017.32 1017.53 1017.67 1017.71 1017.65 1017.49 1017.23 1016.89 1016.51 1016.11 1015.71 1015.36 1015.06 1014.82 1014.63 1014.47 1014.32 1014.14 1013.92 1013.64 1013.28 1012.86 1012.38 1011.86 1011.34
1011.77 1011.60 1011.53 1011.56 1011.68 1011.90 1012.20 1012.55 1012.95 1013.37 1013.80 1014.23 1014.66 1015.08 1015.49 1015.88 1016.25 1016.58 1016.86 1017.08 1017.21 1017.25 1017.18 1017.01 1016.75 1016.42 1016.06 1015.68 1015.33 1015.01 1014.74 1014.53 1014.36 1014.22 1014.07 1013.89 1013.67 1013.37 1013.00 1012.57 1012.07 1011.55 1011.01
Thickness
5583 5583 5583 5582 5582 5582 5583 5584 5585 5586 5587 5589 5589 5591 5591 5591 5591 5591 5591 5592 5593 5594 5595 5595 5597 5597 5599 5601 5603 5606 5609 5612 5614 5616 5620 5625 5629 5632 5633 5634 5635 5635 5636
5577 5577 5576 5575 5574 5574 5574 5576 5576 5577 5578 5578 5578 5579 5580 5580 5580 5580 5580 5581 5582 5583 5583 5583 5584 5584 5586 5588 5590 5592 5595 5598 5599 5600 5603 5609 5615 5620 5624 5625 5625 5626 5627
5571 5571 5570 5568 5566 5566 5566 5568 5567 5568 5568 5569 5569 5570 5570 5570 5570 5569 5569 5570 5570 5571 5571 5571 5572 5572 5573 5574 5576 5578 5580 5582 5585 5585 5587 5591 5598 5604 5609 5612 5614 5615 5615
5566 5565 5563 5562 5560 5559 5559 5559 5559 5559 5560 5560 5560 5560 5559 5558 5557 5557 5557 5558 5559 5559 5559 5559 5560 5560 5561 5562 5563 5565 5566 5568 5570 5572 5574 5575 5578 5583 5592 5597 5599 5601 5603
5560 5559 5558 5556 5555 5553 5552 5552 5552 5552 5551 5552 5551 5550 5549 5548 5547 5547 5547 5548 5548 5548 5548 5548 5548 5549 5549 5550 5551 5553 5554 5555 5556 5558 5560 5562 5564 5567 5571 5580 5585 5586 5589
5556 5554 5552 5551 5549 5548 5546 5545 5545 5545 5544 5544 5543 5542 5540 5539 5539 5538 5537 5537 5537 5537 5536 5536 5536 5537 5538 5539 5539 5541 5542 5543 5544 5544 5545 5547 5549 5552 5554 5560 5566 5571 5576
5551 5548 5547 5545 5544 5543 5541 5539 5538 5538 5537 5536 5535 5533 5532 5530 5529 5528 5527 5526 5526 5525 5525 5525 5525 5526 5527 5528 5528 5529 5531 5531 5532 5532 5533 5534 5536 5538 5540 5543 5549 5554 5560
5547 5545 5544 5541 5539 5538 5536 5534 5532 5531 5530 5528 5527 5525 5524 5522 5520 5519 5517 5516 5515 5515 5514 5514 5515 5515 5515 5516 5517 5518 5519 5519 5519 5520 5520 5522 5524 5525 5527 5529 5532 5537 5544
5545 5542 5540 5538 5536 5534 5532 5530 5527 5525 5523 5521 5519 5518 5516 5514 5512 5510 5508 5507 5506 5506 5505 5505 5505 5504 5505 5505 5506 5506 5506 5507 5507 5508 5508 5510 5511 5513 5514 5516 5518 5520 5528
5542 5539 5536 5535 5533 5530 5528 5525 5522 5520 5517 5515 5512 5511 5508 5506 5504 5502 5500 5499 5497 5496 5496 5495 5495 5494 5494 5494 5494 5494 5494 5495 5495 5496 5496 5497 5498 5500 5502 5503 5505 5507 5511
5540 5537 5534 5532 5529 5526 5523 5520 5517 5514 5512 5509 5506 5503 5501 5498 5496 5494 5492 5490 5489 5488 5487 5486 5485 5484 5483 5483 5482 5482 5482 5482 5482 5482 5483 5483 5484 5485 5487 5488 5491 5493 5495
5537 5534 5531 5528 5524 5521 5518 5515 5512 5509 5506 5503 5500 5496 5494 5491 5489 5487 5484 5483 5481 5479 5478 5476 5475 5474 5473 5472 5471 5470 5469 5469 5468 5468 5469 5469 5470 5470 5471 5473 5475 5477 5479
5534 5531 5527 5524 5522 5518 5515 5511 5507 5504 5501 5497 5493 5490 5487 5484 5482 5480 5478 5475 5473 5471 5470 5468 5466 5464 5463 5461 5460 5459 5457 5456 5455 5455 5455 5456 5456 5456 5457 5458 5459 5461 5464
5532 5529 5525 5522 5519 5516 5512 5508 5503 5499 5495 5491 5488 5484 5481 5478 5475 5473 5471 5468 5466 5464 5461 5459 5456 5454 5453 5451 5449 5448 5446 5444 5443 5443 5443 5442 5442 5443 5443 5444 5444 5445 5447
5530 5528 5525 5521 5517 5513 5509 5505 5500 5495 5491 5486 5482 5479 5475 5472 5469 5466 5463 5461 5458 5456 5453 5450 5447 5444 5443 5441 5439 5437 5436 5433 5432 5431 5430 5429 5429 5430 5430 5430 5430 5430 5431
5532 5529 5525 5521 5516 5512 5507 5502 5497 5491 5486 5481 5477 5473 5469 5466 5463 5460 5456 5453 5450 5447 5444 5441 5437 5434 5432 5431 5430 5428 5425 5422 5420 5418 5417 5417 5416 5416 5416 5416 5416 5416 5415
5530 5527 5524 5520 5516 5511 5506 5499 5494 5488 5481 5476 5472 5468 5464 5460 5457 5453 5449 5446 5442 5439 5435 5432 5428 5424 5422 5422 5421 5418 5414 5411 5408 5406 5405 5404 5403 5403 5402 5402 5402 5401 5400
5527 5524 5520 5516 5512 5508 5502 5496 5489 5483 5477 5472 5467 5463 5458 5454 5450 5446 5442 5438 5434 5430 5426 5423 5419 5415 5413 5412 5411 5409 5404 5400 5397 5395 5393 5392 5390 5389 5389 5389 5389 5387 5386
5523 5520 5516 5512 5507 5502 5496 5490 5484 5478 5472 5467 5463 5458 5453 5449 5444 5439 5435 5430 5425 5421 5417 5414 5410 5406 5403 5402 5400 5398 5393 5390 5386 5384 5382 5380 5378 5378 5378 5377 5375 5375 5374
5516 5513 5509 5504 5500 5495 5489 5483 5477 5472 5468 5464 5459 5453 5448 5442 5438 5433 5427 5422 5417 5413 5409 5405 5401 5397 5393 5392 5390 5388 5383 5380 5376 5373 5371 5369 5368 5367 5366 5363 5362 5361 5361
5510 5506 5502 5498 5494 5488 5482 5477 5472 5468 5465 5459 5453 5447 5442 5436 5431 5425 5419 5414 5409 5404 5399 5395 5391 5388 5385 5382 5380 5377 5373 5369 5366 5363 5360 5357 5356 5355 5353 5351 5349 5348 5348
5502 5499 5494 5491 5486 5481 5475 5471 5467 5464 5457 5451 5446 5440 5434 5429 5424 5417 5411 5405 5400 5394 5389 5385 5381 5379 5375 5373 5370 5367 5364 5360 5356 5352 5349 5347 5345 5344 5342 5339 5337 5336 5335
5495 5491 5486 5483 5478 5473 5469 5465 5462 5456 5449 5443 5437 5432 5427 5421 5415 5409 5403 5397 5391 5386 5382 5378 5374 5370 5367 5363 5361 5358 5355 5351 5346 5342 5340 5338 5335 5332 5329 5326 5325 5323 5320
5487 5482 5477 5474 5471 5466 5462 5459 5454 5448 5441 5435 5430 5424 5418 5412 5407 5402 5397 5391 5385 5379 5375 5371 5367 5362 5358 5354 5351 5347 5344 5341 5337 5333 5330 5327 5323 5320 5317 5315 5311 5309 5307
5479 5474 5470 5468 5465 5460 5455 5451 5445 5439 5433 5427 5422 5416 5411 5405 5398 5394 5389 5384 5379 5373 5368 5364 5359 5354 5350 5347 5344 5340 5336 5332 5328 5325 5320 5316 5312 5309 5306 5303 5300 5297 5296
5470 5466 5463 5460 5457 5452 5448 5443 5438 5432 5426 5420 5414 5409 5403 5397 5391 5385 5380 5377 5372 5368 5364 5360 5354 5349 5345 5341 5337 5333 5329 5325 5321 5316 5310 5306 5302 5298 5295 5292 5290 5287 5286